Weather History for Frankfort, MI

Change the Weather History Date:

Thursday, March 21, 2013

  Actual Average (KTVC) Record (KTVC)
Temperature  
Mean Temperature 25 °F 32 °F  
Max Temperature 28 °F 42 °F 87 °F (2012)
Min Temperature 22 °F 23 °F -6 °F (1989)
Degree Days  
Heating Degree Days 40 33  
Month to date heating degree days 760  
Since 1 July heating degree days 6100  
Cooling Degree Days 0 0  
Month to date cooling degree days 0  
Year to date cooling degree days 0  
Moisture  
Dew Point 19 °F    
Average Humidity 74    
Maximum Humidity 85    
Minimum Humidity 61    
Precipitation  
Precipitation 0.00 in 0.06 in 0.56 in (1994)
Month to date precipitation 1.20  
Year to date precipitation 5.52  
Sea Level Pressure  
Sea Level Pressure 29.91 in    
Wind  
Wind Speed 13 mph (NW)    
Max Wind Speed 20 mph    
Max Gust Speed 25 mph    
Visibility 7 miles    
Events Snow    
T = Trace of Precipitation, MM = Missing Value Source: NWS Daily Summary

Daily Weather History Graph

Daily Weather History Graph

Search for Another Location

Airport:

Trip Planner

Search our weather history database for the weather conditions in past years. The results will help you decide how hot, cold, wet, or windy it might be!

Date:

Astronomy

Mar. 21, 2013 Rise Set
Actual Time 7:45 AM EDT 7:58 PM EDT
Civil Twilight 7:16 AM EDT 8:27 PM EDT
Nautical Twilight 6:42 AM EDT 9:02 PM EDT
Astronomical Twilight 6:07 AM EDT 9:37 PM EDT
Moon 2:16 PM EDT (3/21) 4:19 AM EDT (3/21)
Length of Visible Light 13h 11m
Length of Day
12h 13m
Waxing Gibbous, 68% of the Moon is Illuminated
Mar 21
Waxing Gibbous
Mar 27
Full
Apr 3
Last Quarter
Apr 10
New
Apr 18
First Quarter

Hourly Weather History & Observations

Time (EDT) Temp. Windchill Dew Point Humidity Pressure Visibility Wind Dir Wind Speed Gust Speed Precip Events Conditions
12:16 AM 23.0 °F 9.2 °F 16.9 °F 77% 29.90 in 10.0 mi NW 17.3 mph 24.2 mph N/A Snow Light Snow
12:36 AM 23.0 °F 9.6 °F 16.7 °F 77% 29.90 in 4.0 mi NW 16.1 mph 23.0 mph N/A Snow Light Snow
12:56 AM 22.5 °F 8.9 °F 17.1 °F 80% 29.90 in 2.5 mi NW 16.1 mph - N/A Snow Light Snow
1:16 AM 22.6 °F 8.7 °F 16.7 °F 78% 29.89 in 2.5 mi WNW 17.3 mph 24.2 mph N/A Snow Light Snow
1:36 AM 23.0 °F 11.1 °F 16.5 °F 76% 29.89 in 2.5 mi NW 12.7 mph 24.2 mph N/A Snow Light Snow
1:56 AM 23.0 °F 11.1 °F 17.4 °F 79% 29.89 in 3.0 mi NNW 12.7 mph 21.9 mph N/A Snow Light Snow
2:16 AM 22.8 °F 8.5 °F 18.0 °F 82% 29.88 in 2.5 mi NW 18.4 mph 24.2 mph N/A Snow Light Snow
2:36 AM 23.0 °F 9.6 °F 19.2 °F 85% 29.88 in 2.5 mi NW 16.1 mph 25.3 mph N/A Snow Light Snow
2:57 AM 23.4 °F 10.6 °F 19.4 °F 85% 29.88 in 1.8 mi NW 15.0 mph 19.6 mph N/A Snow Light Snow
3:17 AM 23.9 °F 10.8 °F 18.9 °F 81% 29.87 in 5.0 mi NW 16.1 mph 25.3 mph N/A Snow Light Snow
3:37 AM 24.4 °F 12.4 °F 19.4 °F 81% 29.87 in 7.0 mi NW 13.8 mph 23.0 mph N/A Snow Light Snow
4:12 AM 24.6 °F 13.2 °F 20.1 °F 83% 29.86 in 10.0 mi NNW 12.7 mph 24.2 mph N/A   Overcast
4:32 AM 25.0 °F 13.1 °F 20.8 °F 84% 29.86 in 10.0 mi NW 13.8 mph 20.7 mph N/A Snow Light Snow
4:52 AM 25.7 °F 14.6 °F 21.4 °F 84% 29.86 in 7.0 mi NW 12.7 mph 21.9 mph N/A Snow Light Snow
5:12 AM 26.2 °F 17.8 °F 21.9 °F 84% 29.86 in 4.0 mi NNW 8.1 mph 19.6 mph N/A Snow Light Snow
5:32 AM 26.2 °F 17.1 °F 21.9 °F 84% 29.86 in 7.0 mi NNW 9.2 mph 19.6 mph N/A Snow Light Snow
5:53 AM 26.6 °F 16.8 °F 22.1 °F 83% 29.87 in 7.0 mi NNW 10.4 mph 17.3 mph N/A Snow Light Snow
6:13 AM 26.6 °F 18.2 °F 21.9 °F 82% 29.87 in 7.0 mi NNW 8.1 mph 16.1 mph N/A Snow Light Snow
6:33 AM 26.6 °F 15.7 °F 21.2 °F 80% 29.87 in 7.0 mi NNW 12.7 mph 18.4 mph N/A Snow Light Snow
6:53 AM 26.6 °F 19.1 °F 21.2 °F 80% 29.87 in 10.0 mi NNW 6.9 mph - N/A Snow Light Snow
7:13 AM 26.8 °F 17.7 °F 21.2 °F 79% 29.87 in 10.0 mi NNW 9.2 mph 18.4 mph N/A Snow Light Snow
7:33 AM 27.0 °F 18.7 °F 21.2 °F 79% 29.87 in 7.0 mi NNW 8.1 mph - N/A Snow Light Snow
7:53 AM 27.0 °F 19.5 °F 21.6 °F 80% 29.87 in 10.0 mi NNW 6.9 mph - N/A Snow Light Snow
8:13 AM 26.6 °F 17.5 °F 21.0 °F 79% 29.88 in 7.0 mi NNW 9.2 mph - N/A Snow Light Snow
8:54 AM 27.0 °F 19.5 °F 20.3 °F 76% 29.88 in 5.0 mi NNW 6.9 mph 21.9 mph N/A Snow Light Snow
9:14 AM 27.0 °F 16.7 °F 21.0 °F 78% 29.88 in 3.0 mi NNW 11.5 mph 19.6 mph N/A Snow Light Snow
9:34 AM 27.1 °F 18.9 °F 20.8 °F 77% 29.88 in 3.0 mi North 8.1 mph - N/A Snow Light Snow
9:54 AM 27.1 °F 20.7 °F 20.5 °F 76% 29.89 in 7.0 mi NNW 5.8 mph - N/A Snow Light Snow
10:14 AM 27.1 °F 18.9 °F 20.7 °F 77% 29.90 in 3.0 mi NNW 8.1 mph - N/A Snow Light Snow
10:34 AM 27.1 °F 17.5 °F 21.0 °F 78% 29.90 in 3.0 mi NNW 10.4 mph 18.4 mph N/A Snow Light Snow
10:54 AM 27.3 °F 19.1 °F 20.7 °F 76% 29.90 in 4.0 mi NNW 8.1 mph - N/A Snow Light Snow
11:14 AM 27.1 °F 17.5 °F 21.6 °F 80% 29.90 in 2.0 mi NNW 10.4 mph - N/A Snow Light Snow
11:35 AM 27.5 °F 16.8 °F 20.8 °F 76% 29.90 in 3.0 mi NNW 12.7 mph 18.4 mph N/A Snow Light Snow
11:55 AM 27.3 °F 17.1 °F 20.3 °F 75% 29.91 in 5.0 mi NNW 11.5 mph 21.9 mph N/A Snow Light Snow
12:15 PM 27.3 °F 15.2 °F 20.3 °F 75% 29.91 in 7.0 mi NW 16.1 mph 19.6 mph N/A Snow Light Snow
12:35 PM 27.5 °F 16.3 °F 21.0 °F 77% 29.91 in 4.0 mi NW 13.8 mph 23.0 mph N/A Snow Light Snow
12:55 PM 27.9 °F 17.3 °F 19.6 °F 71% 29.91 in 10.0 mi NNW 12.7 mph 16.1 mph N/A   Overcast
1:15 PM 27.5 °F 17.4 °F 18.9 °F 70% 29.92 in 10.0 mi NNW 11.5 mph 19.6 mph N/A Snow Light Snow
1:35 PM 27.3 °F 17.1 °F 19.9 °F 74% 29.92 in 7.0 mi NW 11.5 mph 21.9 mph N/A Snow Light Snow
1:55 PM 27.5 °F 15.4 °F 19.4 °F 72% 29.92 in 7.0 mi NNW 16.1 mph 25.3 mph N/A Snow Light Snow
2:16 PM 27.9 °F 16.8 °F 19.6 °F 71% 29.92 in 7.0 mi NW 13.8 mph 20.7 mph N/A Snow Light Snow
2:36 PM 27.7 °F 16.1 °F 19.2 °F 71% 29.92 in 7.0 mi NW 15.0 mph 24.2 mph N/A Snow Light Snow
2:56 PM 27.5 °F 16.8 °F 18.7 °F 69% 29.92 in 5.0 mi NW 12.7 mph 20.7 mph N/A Snow Light Snow
3:16 PM 27.7 °F 15.6 °F 18.5 °F 68% 29.92 in 10.0 mi NW 16.1 mph 21.9 mph N/A   Overcast
3:36 PM 28.0 °F 16.1 °F 17.4 °F 64% 29.93 in 10.0 mi NW 16.1 mph 20.7 mph N/A   Overcast
3:56 PM 27.9 °F 17.3 °F 18.0 °F 66% 29.93 in 10.0 mi NW 12.7 mph 23.0 mph N/A Snow Light Snow
4:16 PM 27.5 °F 14.6 °F 18.9 °F 70% 29.93 in 5.0 mi NW 18.4 mph 25.3 mph N/A Snow Light Snow
4:36 PM 27.1 °F 13.8 °F 19.4 °F 73% 29.93 in 7.0 mi NW 19.6 mph - N/A Snow Light Snow
4:57 PM 27.1 °F 17.5 °F 19.8 °F 74% 29.94 in 7.0 mi NW 10.4 mph 20.7 mph N/A Snow Light Snow
5:17 PM 27.0 °F 15.6 °F 19.4 °F 73% 29.94 in 4.0 mi NW 13.8 mph 19.6 mph N/A Snow Light Snow
5:37 PM 27.1 °F 16.4 °F 19.4 °F 73% 29.94 in 7.0 mi NW 12.7 mph 19.6 mph N/A Snow Light Snow
5:57 PM 27.3 °F 17.1 °F 19.2 °F 72% 29.94 in 7.0 mi NW 11.5 mph - N/A Snow Light Snow
6:12 PM 27.1 °F 17.5 °F 18.9 °F 71% 29.94 in 7.0 mi NW 10.4 mph 17.3 mph N/A Snow Light Snow
6:32 PM 27.3 °F 19.9 °F 18.3 °F 69% 29.94 in 10.0 mi NW 6.9 mph - N/A   Overcast
6:52 PM 27.3 °F 18.4 °F 17.2 °F 66% 29.94 in 10.0 mi NW 9.2 mph - N/A Snow Light Snow
7:12 PM 27.3 °F 18.4 °F 17.1 °F 65% 29.94 in 10.0 mi NNW 9.2 mph - N/A   Overcast
7:33 PM 27.3 °F 18.4 °F 16.7 °F 64% 29.95 in 10.0 mi NNW 9.2 mph - N/A   Overcast
7:53 PM 27.5 °F 20.2 °F 16.5 °F 63% 29.95 in 10.0 mi NW 6.9 mph - N/A   Overcast
8:13 PM 27.3 °F 20.9 °F 16.3 °F 63% 29.95 in 10.0 mi NNW 5.8 mph - N/A   Overcast
8:33 PM 27.3 °F 19.1 °F 16.3 °F 63% 29.95 in 10.0 mi NNW 8.1 mph - N/A   Overcast
8:53 PM 27.5 °F 19.3 °F 15.4 °F 61% 29.95 in 10.0 mi NNW 8.1 mph - N/A   Overcast
9:13 PM 27.5 °F 21.1 °F 15.8 °F 61% 29.95 in 10.0 mi NW 5.8 mph - N/A   Overcast
9:33 PM 27.5 °F 18.0 °F 15.6 °F 61% 29.95 in 10.0 mi NW 10.4 mph - N/A   Overcast
9:53 PM 27.0 °F 19.5 °F 15.6 °F 62% 29.95 in 10.0 mi NW 6.9 mph - N/A   Mostly Cloudy
10:13 PM 27.0 °F 21.6 °F 16.7 °F 65% 29.96 in 10.0 mi NNW 4.6 mph - N/A   Mostly Cloudy
10:33 PM 26.8 °F 20.2 °F 16.7 °F 66% 29.97 in 10.0 mi NNW 5.8 mph - N/A   Overcast
10:54 PM 26.2 °F 20.7 °F 16.5 °F 67% 29.96 in 10.0 mi NNW 4.6 mph - N/A   Mostly Cloudy
11:14 PM 25.7 °F 21.5 °F 17.2 °F 70% 29.96 in 10.0 mi North 3.5 mph - N/A   Mostly Cloudy
11:34 PM 26.4 °F 20.9 °F 17.8 °F 70% 29.96 in 10.0 mi North 4.6 mph - N/A   Overcast
11:54 PM 26.6 °F 22.6 °F 18.3 °F 71% 29.96 in 10.0 mi North 3.5 mph - N/A   Overcast